Regional Weather Roundup
Issued by NWS Jackson, KY

Home | Current Version | Previous Version | Graphics & Text | Print | Product List | Glossary On
Versions: 1 2 3 4 5 6 7 8 9 10 11 12 13 14 15 16 17 18 19 20 21 22 23 24 25 26 27 28 29 30 31 32 33 34 35 36 37 38 39 40 41 42 43 44 45 46 47 48 49 50
000
ASUS43 KJKL 220910
RWRJKL

EAST KENTUCKY HOURLY WEATHER ROUNDUP
NATIONAL WEATHER SERVICE JACKSON KY
400 AM EST MON JAN 22 2018

NOTE: "FAIR" INDICATES FEW OR NO CLOUDS BELOW 12,000 FEET WITH
NO SIGNIFICANT WEATHER AND/OR OBSTRUCTIONS TO VISIBILITY.

* THESE REPORTS ARE NOT UNDER NWS QUALITY CONTROL AND MAY NOT
  REPORT WEATHER SUCH AS PRECIPITATION AND FOG.

KYZ079-080-083-085-087-088-110-112-115-119-120-221000
...EASTERN KENTUCKY...

CITY           SKY/WX    TMP DP  RH WIND       PRES   REMARKS
JACKSON        CLOUDY    55  42  61 SW6       30.04S
LONDON         CLOUDY    56  42  59 S3        30.04S
SOMERSET*        N/A     55  41  58 S8        30.04F
WILLIAMSBURG*  PTSUNNY   55  43  62 SE8       30.05F
MIDDLESBORO*     N/A     41  40  95 CALM      30.10S
HARLAN APT*    CLOUDY    52  41  66 NE3       30.09S
PIKE CO APT*   CLOUDY    56  43  60 SE8       30.04F
BIG SANDY APT* CLOUDY    56  44  64 S5        30.04S
$$

KYZ035-036-041-042-044-050-067-078-099-221000
...CENTRAL KENTUCKY...

CITY           SKY/WX    TMP DP  RH WIND       PRES   REMARKS
MT STERLING*   CLOUDY    55  43  62 SW10      30.02F
FLEMING/MASON* CLOUDY    52  44  74 S7        30.00F
DANVILLE*      CLOUDY    54  43  66 S9        30.00F
LEXINGTON      CLOUDY    55  43  63 S12       29.99F
FRANKFORT      CLOUDY    54  42  64 S6        29.96F
LOUISVILLE     CLOUDY    60  45  57 S12       29.93F
LEBANON*       PTSUNNY   55  43  62 S9        29.98S
GLASGOW*         N/A     56  43  61 SE10      29.95F
BOWLING GREEN    N/A     58  45  62 S10       29.95F
$$

KYZ091>093-OHZ055-061-077-WVZ005-015-034-035-042-221000
...SOUTHERN OHIO/WEST VIRGINIA...

CITY           SKY/WX    TMP DP  RH WIND       PRES   REMARKS
COVINGTON      CLOUDY    53  45  74 S10       29.94F
COLUMBUS       CLOUDY    48  48 100 SE6       29.97F
DAYTON         CLOUDY    52  48  86 S10       29.94F
WILMINGTON     CLOUDY    51  45  79 S12       29.96F
HUNTINGTON     CLOUDY    55  43  63 SW5       30.02S
CHARLESTON     CLOUDY    51  44  77 CALM      30.04F
BECKLEY        CLOUDY    51  40  65 SE10      30.10F
BLUEFIELD      CLOUDY    50  38  63 S6        30.13F
LOGAN CO APT*  CLOUDY    55  43  62 S8G14     30.06S
$$

VAZ002-007-008-TNZ017-027-036-066-071-221000
...SOUTHWEST VIRGINIA/EAST TENNESSEE...

CITY           SKY/WX    TMP DP  RH WIND       PRES   REMARKS
WISE*          MOCLDY    52  43  71 S7        30.12S
JONESVILLE*      N/A     37  37 100 CALM      30.13S
ABINGDON*        N/A     42  39  88 CALM      30.13S
BRISTOL        MOCLDY    34  34 100 CALM      30.13S FOG
MORRISTOWN*    SUNNY     43  39  87 E3        30.09F
SEVIERVILLE*   SUNNY     36  34  93 CALM      30.09F
KNOXVILLE      MOCLDY    41  39  93 CALM      30.09F
LAFOLLETTE*    SUNNY     39  39 100 CALM      30.13S
OAK RIDGE        N/A     40  39  97 CALM      30.11S
CROSSVILLE       N/A     52  41  66 S8        30.07F
NASHVILLE      CLOUDY    59  43  55 S12       29.97F
$$

...KEY TO REMARKS...
VSB - VISIBILITY IN MILES
WCI - WIND CHILL INDEX
HX  - HEAT INDEX

$$



USA.gov is the U.S. government's official web portal to all federal, state and local government web resources and services.